Content
SEND FEEDBACK

Daily
Averages
Monthly
Summary
Canada

MONCTON, NEW BRUNSWICK


Home > North America > Canada > New Brunswick
Elevation: 232 feet     Latitude: 46 07N     Longitude: 064 41W

WEATHER
 
SELECT A DAY
Number of Records: 208,443;   Date Range: 1/1/95 - 12/19/14
 
SHARE

PRINT THIS DATA

[ ← Previous Day ]
WEATHER ALMANAC - MARCH 3, 2013
[ Next Day → ]
[ °C ]   °F
Weather ElementAverageHighLow
Temperature33 °F36 °F (2:00 pm)30.2 °F (3:00 am)
Dewpoint32.1 °F35.6 °F (5:15 pm)30.2 °F (12:41 am)
Humidity96.4 %100 % (3:00 am)86 % (2:00 pm)
Barometer29.44 in29.49 in (12:41 am)29.38 in (11:57 pm)
Wind Speed5.9 mph10.4 mph (3:39 am)
Weather ElementAverage
Visibility6.4 mi
Wind DirectionWNW (296.5 °)

Weather ElementTotal
Precipitation---
Heating Degree Days31.9 (Base 65)
Averaged from 65 records on March 3, 2013
WEATHER CONDITIONS BREAKOUT
WIND DIRECTION BREAKOUT
WEATHER BY HOUR - MARCH 3, 2013
[ °C ]   °F
Local TimeTemperatureDewpointHumidityBarometerVisibilityWind DirectionWind SpeedGust SpeedPrecipitationEventsConditions
12:41 AM32.0 °F30.2 °F93 %29.49 in3.0 miNorth (350°)9.2 mphLight Freezing Drizzle
1:00 AM32.0 °F30.2 °F93 %29.49 in3.0 miNNW (340°)8.1 mphSnowLight Snow
1:36 AM32.0 °F30.2 °F93 %29.49 in5.0 miNNW (340°)8.1 mphLight Freezing Drizzle
1:55 AM32.0 °F30.2 °F93 %29.49 in5.0 miNNW (330°)8.1 mphSnowLight Snow
2:00 AM32.0 °F30.2 °F93 %29.48 in5.0 miNNW (330°)9.2 mphSnowLight Snow
3:00 AM30.2 °F30.2 °F100 %29.47 in15.0 miNNW (330°)9.2 mphSnowLight Snow
3:12 AM30.2 °F30.2 °F100 %29.47 in15.0 miNNW (340°)8.1 mphOvercast
3:39 AM30.2 °F30.2 °F100 %29.47 in15.0 miNNW (340°)10.4 mphOvercast
4:00 AM30.2 °F30.2 °F100 %29.47 in6.0 miNorth (350°)6.9 mphOvercast
4:09 AM30.2 °F30.2 °F100 %29.48 in1.5 miNorth (360°)5.8 mphLight Freezing Drizzle
4:39 AM30.2 °F30.2 °F100 %29.48 in1.0 miNNW (330°)5.8 mphOvercast
5:00 AM30.2 °F30.2 °F100 %29.48 in1.0 miNNW (330°)4.6 mphOvercast
5:17 AM30.2 °F30.2 °F100 %29.48 in0.8 miNNW (340°)4.6 mphLight Freezing Drizzle
5:34 AM30.2 °F30.2 °F100 %29.48 in1.0 miNNW (330°)3.5 mphLight Freezing Drizzle
6:00 AM30.2 °F30.2 °F100 %29.48 in1.0 miNW (310°)4.6 mphLight Freezing Drizzle
6:16 AM30.2 °F30.2 °F100 %29.48 in1.8 miWNW (300°)4.6 mphLight Freezing Drizzle
7:00 AM30.2 °F30.2 °F100 %29.48 in1.5 miWNW (290°)3.5 mphOvercast
8:00 AM31.0 °F31.0 °F100 %29.49 in1.0 miNW (320°)4.6 mphMist
8:00 AM30.2 °F30.2 °F100 %29.49 in1.5 miNNW (330°)4.6 mphOvercast
8:43 AM32.0 °F32.0 °F100 %29.48 in1.5 miWNW (290°)5.8 mphLight Freezing Drizzle
9:00 AM32.0 °F32.0 °F100 %29.49 in1.5 miNW (320°)5.8 mphLight Freezing Drizzle
9:20 AM32.0 °F30.2 °F93 %29.48 in2.0 miWNW (300°)6.9 mphLight Drizzle
9:33 AM32.0 °F30.2 °F93 %29.49 in4.0 miWNW (300°)5.8 mphOvercast
10:00 AM32.0 °F30.2 °F93 %29.49 in4.0 miNNW (330°)4.6 mphOvercast
11:00 AM33.8 °F32.0 °F93 %29.49 in8.0 miWNW (300°)5.8 mphOvercast
12:00 PM33.8 °F32.0 °F93 %29.48 in12.0 miNW (310°)3.5 mphOvercast
12:31 PM35.6 °F32.0 °F87 %29.47 in4.0 miWest (260°)4.6 mphLight Drizzle
12:42 PM35.6 °F33.8 °F93 %29.47 in1.2 miWest (280°)6.9 mphLight Drizzle
1:00 PM35.6 °F33.8 °F93 %29.46 in1.8 miWest (260°)5.8 mphLight Drizzle
1:42 PM35.6 °F33.8 °F93 %29.44 in10.0 miWest (280°)8.1 mphOvercast
2:00 PM36.0 °F33.0 °F86 %29.43 in15.0 miWNW (290°)6.9 mphRainLight Drizzle
2:00 PM35.6 °F33.8 °F93 %29.43 in15.0 miWNW (290°)6.9 mphOvercast
2:22 PM35.6 °F33.8 °F93 %29.43 in10.0 miNW (310°)8.1 mphLight Drizzle
2:42 PM35.6 °F33.8 °F93 %29.43 in6.0 miWNW (300°)6.9 mphOvercast
3:00 PM35.6 °F33.8 °F93 %29.42 in4.0 miWNW (300°)9.2 mphLight Drizzle
3:24 PM35.6 °F33.8 °F93 %29.42 in1.5 miWNW (290°)8.1 mphLight Drizzle
4:00 PM35.6 °F33.8 °F93 %29.42 in1.5 miWNW (290°)4.6 mphLight Drizzle
4:48 PM35.6 °F33.8 °F93 %29.42 in1.5 miWSW (240°)4.6 mphLight Drizzle
5:00 PM35.6 °F33.8 °F93 %29.41 in2.5 miWSW (250°)5.8 mphLight Drizzle
5:15 PM35.6 °F35.6 °F100 %29.42 in10.0 miWSW (250°)3.5 mphMostly Cloudy
5:30 PM35.6 °F35.6 °F100 %29.42 in2.2 miWSW (240°)3.5 mphLight Drizzle
5:43 PM35.6 °F35.6 °F100 %29.41 in2.0 miWest (270°)9.2 mphLight Drizzle
5:53 PM35.6 °F33.8 °F93 %29.41 in6.0 miWNW (290°)4.6 mphMostly Cloudy
6:00 PM35.6 °F33.8 °F93 %29.41 in10.0 miWest (280°)4.6 mphMostly Cloudy
6:11 PM33.8 °F33.8 °F100 %29.42 in10.0 miNNW (340°)6.9 mphOvercast
6:31 PM33.8 °F33.8 °F100 %29.42 in1.2 miNNW (330°)6.9 mphLight Drizzle
6:44 PM33.8 °F33.8 °F100 %29.42 in1.2 miNNW (330°)5.8 mphLight Drizzle
7:00 PM33.8 °F33.8 °F100 %29.42 in5.0 miNorth (350°)3.5 mphOvercast
7:11 PM33.8 °F33.8 °F100 %29.42 in1.2 miNNW (340°)4.6 mphLight Drizzle
7:43 PM33.8 °F32.0 °F93 %29.42 in1.0 miWNW (300°)6.9 mphLight Drizzle
8:00 PM33.0 °F33.0 °F98 %29.42 in2.0 miWNW (300°)4.6 mphRainLight Drizzle
8:00 PM33.8 °F32.0 °F93 %29.42 in2.0 miWNW (300°)4.6 mphLight Drizzle
8:05 PM33.8 °F32.0 °F93 %29.41 in5.0 miWNW (300°)4.6 mphLight Drizzle
8:25 PM33.8 °F32.0 °F93 %29.42 in15.0 miWNW (300°)3.5 mphOvercast
8:44 PM33.8 °F32.0 °F93 %29.42 in15.0 miWNW (290°)3.5 mphOvercast
9:00 PM33.8 °F32.0 °F93 %29.41 in15.0 miWest (280°)4.6 mphOvercast
9:39 PM32.0 °F32.0 °F100 %29.41 in15.0 miWest (260°)4.6 mphMostly Cloudy
9:56 PM32.0 °F32.0 °F100 %29.40 in15.0 miWSW (250°)8.1 mphSnowLight Snow
10:00 PM32.0 °F32.0 °F100 %29.40 in15.0 miWSW (250°)6.9 mphSnowLight Snow
10:12 PM32.0 °F32.0 °F100 %29.39 in15.0 miWSW (240°)6.9 mphMostly Cloudy
10:50 PM32.0 °F32.0 °F100 %29.39 in15.0 miSSW (210°)5.8 mphSnowLight Snow
11:00 PM32.0 °F32.0 °F100 %29.39 in15.0 miSW (220°)5.8 mphOvercast
11:23 PM32.0 °F32.0 °F100 %29.39 in15.0 miSW (220°)5.8 mphOvercast
11:34 PM32.0 °F32.0 °F100 %29.39 in12.0 miSW (220°)4.6 mphOvercast
11:57 PM32.0 °F32.0 °F100 %29.38 in1.5 miSW (230°)4.6 mphOvercast
Hourly data recorded from CYQM, located miles away from Moncton, New Brunswick







STORIES FROM OUR PARTNERS